STARLINK-38042, 69991

Orbit data source: Space-Track

STARLINK-38042, 69991 is a payload satellite owned by SpaceX/Seattle (US) in SSO that was launched on Sat, 11 Jul 2026 UTC via an FALCON 9 launch vehicle from the Air Force Western Test Range (AFWTR). Payload-class satellites include a variety of spacecraft equipped with specific instruments for various scientific and technological missions. These include communications satellites like Starlink; space stations such as the ISS; scientific satellites like the Hubble; Earth observation satellites from companies like Planet Labs, Umbra, and HawkEye 360; GPS; miniature CubeSats for education and research; and military/defense satellites.

Loading next visibility...
Identifier
69991, 2026-159S
Orbit
SSO
Country
Flag of USUS
Related business
Manufacturer
SpaceX/Seattle
Mission
Operational spacecraft
Bus & Motor
STARLINK V2MO, Unknown motor
Mass
575 kg wet, ~530 kg dry
Launch date (UTC)
2026-07-11 (2 months ago)
Launch vehicle
FALCON 9
Launch site
Air Force Western Test Range (AFWTR)
Object type
Payload
Rocket body
Debris
Shape & HBR
BOX + PAN, 17.7 m
Radar Cross Section
Large (>1 m²)

Expand to show TLE details & history
Last TLE update: 2 days ago

TLE from 2 days ago
0 STARLINK-38042
1 69991U 26159S   26262.83431824  .00018657  00000-0  34404-3 0  9993
2 69991  97.2857 104.6384 0000490 161.7813 198.3456 15.49177691 12346
Epoch: 2026-09-19T20:01Z
TLE epoch observation values (Epoch: 2026-09-19T20:01:25.095Z)
Latitude
-0.00004°
Longitude
165.54668°
Altitude
422.58 km
Speed
7.658 km/s
True Right ascension
06h 58m 33s
True Declination
0° 00' 00"
Sunlit
Object was in daylight at epoch
Visualization orbit readout
Latitude
Unknown
Longitude
Unknown
Altitude
Unknown
Speed
Unknown
Apparent Right ascension
Unknown
Apparent Declination
Unknown
Sunlit
N/A
Visualization observer readout
Local Sidereal Time
16:21:55
Azimuth
Unknown
Elevation
Unknown
Doppler factor
Unknown
Orbital elements
Apogee altitude
416.385 km
Perigee altitude
415.719 km
Semi-major axis
6,794.189 km
Eccentricity
0.00005
Inclination
97.2857°
RAAN
104.6384°
Arg. of periapsis
161.7813°
True anomaly
198.34383°
Mean anomaly
198.3456°
Eccentric anomaly
198.34472°
Mean motion
3.87558 °/min
Orbital period
92.89 mins
BSTAR
0.00034404
Loading maneuver chart data...
Computing Atmospheric mass density...
Loading historical data...
Loading historical data...
Loading historical data...
Loading historical data...
Loading historical data...
Loading historical data...
Loading historical data...

Documentation

Showing up to 5 results
|